Flag for Germany Weather past 2 weeks in Fürstenwalde/Spree, Brandenburg, Germany

Now
42 °F

Rain. Overcast.


Feels Like: 39 °F
Forecast: 35 / 50 °F
Wind: 5 mph from Southwest

Location: Lindenberg

Current Time: Mar 6, 2015 at 2:45:08 PM

Latest Report: Mar 6, 2015 at 2:00 PM


Visibility: 8 mi

Pressure: 30.52 "Hg

Humidity: 87%

Dew point: 38 °F

Location of Fürstenwalde/SpreeLocation

Historic Weather in Fürstenwalde/Spree — Graph

°F

Fürstenwalde/Spree temperature yesterday

Maximum temperature yesterday: 41 °F (at 12:00 PM)
Minimum temperature yesterday: 35 °F (at 9:00 PM)
Average temperature yesterday: 38 °F

Past Weeks' High & Low Weather Summary

 TemperatureHumidityPressure
High50 °F (Feb 21, 3:00 PM)99% (Mar 6, 7:00 AM)30.56 "Hg (Mar 6, 7:00 AM)
Low26 °F (Feb 20, 5:00 AM)48% (Feb 21, 12:00 PM)29.38 "Hg (Feb 21, 2:00 PM)
Average38 °F80%29.92 "Hg
* Reported Feb 19 1:00 PM — Mar 6 1:00 PM, Fürstenwalde/Spree, Weather by CustomWeather, © 2015

Note: Actual official high and low records may vary slightly from our data, if they occured in-between our weather recording intervals... More about our weather records

Advertising

Fürstenwalde/Spree weather history for previous 24 hours

 ConditionsComfort  
Time TempWeatherWind HumidityBarometerVisibility
1:00 PM
Fri, Mar 6
42 °FOvercast.5 mph85%30.53 "Hg7 mi
12:00 PM40 °FLow clouds.3 mph88%30.54 "Hg6 mi
11:00 AM38 °FOvercast.3 mph94%30.54 "Hg5 mi
10:00 AM36 °FLight rain. Overcast.3 mph96%30.55 "Hg2 mi
9:00 AM34 °FOvercast.2 mph97%30.55 "Hg4 mi
8:00 AM33 °FLight rain. Overcast.2 mph98%30.54 "Hg5 mi
7:00 AM32 °FOvercast.3 mph99%30.55 "Hg6 mi
6:00 AM30 °FPassing clouds.2 mph98%30.55 "Hg9 mi
5:00 AM31 °FPassing clouds.3 mph98%30.55 "Hg5 mi
4:00 AM31 °FClear.3 mph98%30.54 "Hg6 mi
3:00 AM32 °FClear.3 mph98%30.54 "Hg9 mi
2:00 AM32 °FClear.2 mph97%30.56 "Hg9 mi
1:00 AM33 °FPassing clouds.2 mph97%30.55 "Hg12 mi
12:00 AM33 °FPassing clouds.2 mph96%30.55 "Hg12 mi
9:00 PM
Thu, Mar 5
35 °FPassing clouds.3 mph91%30.53 "Hg16 mi
8:00 PM35 °FPassing clouds.3 mph89%30.52 "Hg19 mi
7:00 PM37 °FPassing clouds.2 mph86%30.51 "Hg19 mi
6:00 PM40 °FOvercast.5 mph81%30.49 "Hg25 mi
5:00 PM41 °FPartly sunny.2 mph73%30.48 "Hg25 mi
4:00 PM41 °FPartly sunny.3 mph69%30.48 "Hg25 mi
3:00 PM41 °FOvercast.6 mph70%30.48 "Hg28 mi
2:00 PM41 °FOvercast.6 mph69%30.47 "Hg25 mi
Weather by CustomWeather, © 2015

See weather overviewHow to use our weather pages